Погода в Ряжске

Погода в Ряжске : погода сейчас, прогноз погоды и архив. Всё, что Вы хотите узнать о погоде в Ряжске!

Хотите узнать прогноз погоды в Ряжске? Тогда Вам сюда: Погода в Ряжске

Поиск расширенной информации на нашем сайте:

Другие новости

Новости СМИ2

Главная страница сайта

Новости сайта

03.07.2017

Напоминаем, что на нашем специализированном сайте Метеоцентр.Азия вы можете получить высокодетализированные автоматические прогнозы погоды по пунктам России, СНГ и мира в авиационном формате (включающие направление и скорость ветра, видимость, явления погоды, количество и форму облачности, нижнюю и верхнюю границу облачности).


Погода в Ряжске - сегодня

Время (UTC), дата Ветер
(°,м/с) 
Видим.   Явления Облачность Т
(°С)
Тd
(°С)
f(%) Тe
(°С)
Pmin
(гПа)
dP
(гПа)
Po
(мм)
O2
(г/м3)
Тmin Tmax R s Состояние
почвы
12 18.10.17 250 (З) 10 км  {дождь}  10/10 600 м 
[Sc]
+11.7 +8.3 80 +11  1008.8  -1.7  745  286           
15 18.10.17 230 (ЮЗ) н/о    10/8 600 м средняя 
[Sc|Ac As]
+11 +8.4 84 +11  1008.1  -0.7  745  287    +11.9  0.3     
18 18.10.17 250 (З) н/о    9/0 средняя 
[Ac und]
+11.8 +9.4 85 +13  1008.1  745  286           
21 18.10.17 250 (З) 4000 м  дымка  8/0 средняя 
[Ac trans]
+11 +9.6 91 +12  1008  0.1  745  287           
00 19.10.17 250 (З) 4000 м  дымка  6/0 верхняя 
[Ci sp]
+10.1 +8.9 92 +10  1008.9  0.8  745  288           
03 19.10.17 270 (З) н/о    9/0 средняя 
[Ac und]
+10.1 +7.2 82 +10  1009.8  0.9  746  289  +9.9         
06 19.10.17 310 (СЗ) 10 км    8/0 средняя, верхняя 
[Ac trans|Ci sp]
+8.8 +0.7 57 +8  1012.5  2.5  748  292  +8.8         
09 19.10.17 300 (СЗ) 10 км    8/3 1000 м средняя, верхняя 
[Cu hum|Ac trans|Ci sp]
+9.1 +1.9 61 +9  1014.4  1.9  749  292           
12 19.10.17 270 (З) 10 км    8/0 верхняя 
[Ci sp]
+10.3 +1.5 54 +10  1015.1  0.7  750  291           
15 19.10.17 310 (СЗ) н/о    4/0 средняя 
[Ac trans]
+6.3 +1.5 71 +7  1016.3  751  295    +10.8       
18 19.10.17 220 (ЮЗ) 4000 м  дымка  3/0 верхняя 
[Ci sp]
+1.1 +0.5 96 +2  1017.7  751  301           
21 19.10.17 тихо ()   4000 м  дымка  4/0 верхняя 
[Ci sp]
+2.5 +1.9 96 +3  1018.4  0.8  752  300           
00 20.10.17 220 (ЮЗ) 4000 м  дымка  4/0 верхняя 
[Ci sp]
+3 +2.1 94 +4  1018.9  0.5  752  299           
03 20.10.17 290 (З) н/о    8/8 600 м 
[Sc]
+4.3 +1.8 84 +5  1019.5  0.7  753  298  +0.5        влажная 
06 20.10.17 310 (СЗ) 10 км    ясно 
+5 +1.9 80 +6  1020.7  1.2  754  298           
09 20.10.17 310 (СЗ) 10 км    8/5 1000 м верхняя 
[Cu med, cong|Ci sp]
+7.8 +0.9 62 +8  1020.9  0.4  754  295           
12 20.10.17 310 (СЗ) 10 км    9/5 600 м кучево-дожд., средняя, верхняя 
[Cb calv|Ac trans|Ci sp]
+8.4 +1 60 +8  1020.7  -0.2  754  295           
15 20.10.17 тихо ()   н/о    10/0 средняя 
[Ac As]
+5.2 +1.3 76 +5  1020.8  -0.1  754  298    +8.8       
18 20.10.17 тихо ()   н/о    9/0 средняя 
[Ac und]
+3 +1.3 89 +3  1021.3  0.3  754  300           
21 20.10.17 тихо ()   4000 м  дымка  ясно 
+0 -0.3 98 1021.4  754  304           
00 21.10.17 180 (Ю) 4000 м  дымка  ясно 
-1.6 -1.7 99 -1  1020.8  -0.7  754  306           
03 21.10.17 180 (Ю) 4000 м  дымка  3/0 средняя 
[Ac trans]
-2.7 -2.8 99 -2  1020.3  -0.6  753  307  -3        замёрзшая 
06 21.10.17 190 (Ю) 4000 м  дымка  10/10 600 м 
[Sc]
-0.1 -0.3 99 +1  1019.8  -0.4  753  303           
09 21.10.17 290 (З) 10 км    10/10 600 м 
[Sc]
+4 +1.9 86 +4  1019.3  -0.2  753  299           
12 21.10.17 300 (СЗ) 10 км    8/8 1000 м 
[Cu med, cong]
+6.6 -0.7 60 +6  1017.6  -1.6  751  296           
Время (UTC), дата Ветер
(°,м/с) 
Видим.   Явления Облачность Т
(°С)
Тd
(°С)
f(%) Тe
(°С)
Pmin
(гПа)
dP
(гПа)
Po
(мм)
O2
(г/м3)
Тmin Tmax R s Состояние
почвы

Для получения пояснительной информации подведите курсор к названию столбца.

ПОГОДА в Ряжске - архив

Всё, что Вы хотите узнать о погоде в Ряжске - удобно и подробно!

Выберите нужную дату (начиная с 1 января 2015* года) и нажмите кнопку "Найти".
Будут отображены архивные сводки погоды по пункту Ряжск, начиная с указанной даты.


Отображать данные в формате CSV (для использования в таблицах Excel)


Внимание! Наш архив погоды предназначен исключительно для личного некоммерческого использования в познавательных целях. Если Вам необходимы официальные справки о состоянии погоды (для производственных, юридических, коммерческих и т.п. целей), обращайтесь в органы Росгидромета.

*Примечание: данная дата относится к архиву по метеостанциям СССР (Россия, СНГ, Балтия).
Архив по метеостанциям Зарубежной Европы и Азии (кроме Китая) хранится 10 дней, по другим регионам земного шара (Китай, Африка, Америка, Австралия, Океания) - 1 день.

Ряжск - район местоположения метеостанции


Название, широта, долгота, высота метеостанции:
Ряжск 53.7°ш. 40.1°д. 127 м над ур. моря [Российская Федерация]

Дополнительная информация

В oтличие oт бoльшинства пoгoдных сайтoв мы публикуем пoдрoбную метеoинфoрмацию в детальнoм прoфессиoнальнoм фoрмате.

Характеристики температуры и влажнoсти вoздуха измеряются на высoте 2 м в тени вдали oт зданий и деревьев.
Скoрoсть ветра измеряется на высoте 10 м (на урoвне рoста челoвека скoрoсть ветра ниже в 1.5-2 раза). Если метеoстанция нахoдится в гoрoде или в лесу, тo скoрoсть ветра занижена на 2-4 м/с пo сравнению с oткрытым местoм. Скoрoсть ветра над акватoриями крупных рек и oзёр, а также на вершинах хoлмoв на 2-5 м/с выше, чем в oбычных услoвиях.
Атмoсфернoе давление в разных тoчках местнoсти мoжет значительнo oтличаться oт давления на метеoстанции, в зависимoсти oт услoвий рельефа (при пoдъёме на 10 м давление пoнижается примернo на 1 мм рт.ст.).